Location: Lafig�re
(44.4503°N, 4.0357°E)
Time: 03:36:50
(UTC+00:00)

Lacrosse 5 rocket - Pass Details

Date: 24 September 2020
Orbit: 460 x 636 km, 57.0° (Epoch: 25 October)

Event Time Altitude Azimuth Distance (km) Brightness Sun altitude
Rises 19:12:47 0° 308° (NW) 2,800 6.2 -17.7°
Reaches altitude 10° 19:15:39 10° 328° (NNW) 1,934 4.8 -18.2°
Maximum altitude 19:18:40 18° 11° (NNE) 1,525 3.6 -18.7°
Enters shadow 19:20:39 14° 42° (NE) 1,737 3.6 -19.1°
